Location: Borotín
(49.5055°N, 14.6142°E)
Time: 07:29:50
(UTC+00:00)

MOS 1-B Rocket - Pass Details

Date: 27 May 2022
Orbit: 891 x 1605 km, 99.0° (Epoch: 28 June)

Event Time Altitude Azimuth Distance (km) Brightness Sun altitude
Rises 01:38:31 0° 152° (SSE) 3,505 6.7 -10.8°
Reaches altitude 10° 01:40:54 10° 149° (SSE) 2,556 6.0 -10.6°
Maximum altitude 01:46:24 64° 69° (ENE) 1,004 4.4 -10.0°
Drops below altitude 10° 01:52:13 10° 350° (N) 2,701 6.9 -9.4°
Sets 01:54:47 0° 347° (NNW) 3,720 7.6 -9.2°
